Location: *
(47.2969°N, 10.2930°E)
Time: 13:51:29
(UTC+00:00)

ASTEX 1 - Pass Details

Date: 09 April 2020
Orbit: 721 x 743 km, 92.7° (Epoch: 03 June)

Event Time Altitude Azimuth Distance (km) Brightness Sun altitude
Exits shadow 21:49:59 48° 324° (NW) 962 4.2 -31.2°
Drops below altitude 10° 21:53:44 10° 349° (N) 2,250 6.7 -31.5°
Sets 21:56:03 0° 352° (N) 3,173 7.7 -31.6°
